Flag for Belarus Weather past 2 weeks in Barysaw, Belarus

Now
34 °F

Passing clouds.


Feels Like: 31 °F
Forecast: 28 / 40 °F
Wind: 3 mph from Southwest

Location: Minsk

Current Time: Dec 21, 2014 at 4:33:55 AM

Latest Report: Dec 21, 2014 at 4:00 AM


Visibility: N/A

Pressure: 29.50 "Hg

Humidity: 100%

Dew point: 34 °F

Location of BarysawLocation

Historic Weather in Barysaw — Graph

°F

Barysaw temperature yesterday

Maximum temperature yesterday: 48 °F (at 12:00 AM)
Minimum temperature yesterday: 36 °F (at 6:30 PM)
Average temperature yesterday: 40 °F

Past Weeks' High & Low Weather Summary

 TemperatureHumidityPressure
High48 °F (Dec 19, 8:30 PM)100% (Dec 6, 5:30 AM)30.39 "Hg (Dec 6, 5:30 AM)
Low16 °F (Dec 6, 5:30 AM)75% (Dec 20, 2:30 PM)29.45 "Hg (Dec 19, 11:00 PM)
Average32 °F97%29.92 "Hg
* Reported Dec 6 3:00 AM — Dec 21 3:30 AM, Barysaw, Weather by CustomWeather, © 2014

Note: Actual official high and low records may vary slightly from our data, if they occured in-between our weather recording intervals... More about our weather records

Advertising

Barysaw weather history for previous 24 hours

 ConditionsComfort  
Time TempWeatherWind HumidityBarometerVisibility
3:30 AM
Dec 21
36 °FPassing clouds.3 mph93%29.50 "HgN/A
3:00 AM36 °FPassing clouds.3 mph93%29.50 "HgN/A
2:30 AM36 °FOvercast.6 mph93%29.50 "HgN/A
2:00 AM36 °FOvercast.6 mph93%29.50 "HgN/A
1:30 AM36 °FSprinkles. Overcast.8 mph93%29.50 "Hg4 mi
12:30 AM37 °FPassing clouds.8 mph87%29.50 "HgN/A
11:53 PM
Dec 20
36 °FPassing clouds.8 mph93%29.50 "HgN/A
11:30 PM36 °FSprinkles. Overcast.8 mph93%29.50 "HgN/A
11:00 PM36 °FSprinkles. Low clouds.8 mph93%29.50 "HgN/A
10:30 PM37 °FSprinkles. Passing clouds.8 mph87%29.50 "HgN/A
10:00 PM37 °FPassing clouds.8 mph87%29.50 "HgN/A
9:30 PM37 °FPassing clouds.8 mph87%29.53 "HgN/A
9:00 PM37 °FPassing clouds.8 mph87%29.53 "HgN/A
8:30 PM36 °FOvercast.8 mph93%29.53 "HgN/A
8:00 PM36 °FPassing clouds.6 mph93%29.53 "HgN/A
7:30 PM36 °FPassing clouds.8 mph93%29.56 "HgN/A
7:00 PM36 °FPassing clouds.6 mph93%29.56 "HgN/A
6:30 PM36 °FPartly cloudy.6 mph93%29.56 "HgN/A
6:00 PM37 °FSprinkles. Passing clouds.6 mph87%29.56 "HgN/A
5:30 PM37 °FSprinkles. Partly sunny.6 mph87%29.56 "HgN/A
5:00 PM37 °FSprinkles. Partly sunny.8 mph87%29.56 "HgN/A
4:30 PM37 °FPartly sunny.6 mph87%29.56 "HgN/A
4:00 PM39 °FPartly sunny.6 mph75%29.56 "HgN/A
3:30 PM39 °FPartly sunny.6 mph75%29.59 "HgN/A
3:00 PM39 °FPartly sunny.8 mph75%29.59 "HgN/A
2:30 PM39 °FPartly sunny.10 mph75%29.59 "HgN/A
2:00 PM39 °FPartly sunny.6 mph81%29.59 "HgN/A
1:30 PM39 °FPartly sunny.6 mph81%29.59 "HgN/A
1:00 PM39 °FPartly sunny.6 mph81%29.59 "HgN/A
12:30 PM37 °FPartly sunny.8 mph87%29.59 "HgN/A
12:00 PM39 °FPartly sunny.8 mph81%29.59 "HgN/A
11:30 AM39 °FPartly sunny.6 mph81%29.59 "HgN/A
11:00 AM37 °FBroken clouds.6 mph87%29.59 "HgN/A
10:30 AM37 °FBroken clouds.6 mph87%29.59 "HgN/A
10:00 AM37 °FPartly cloudy.8 mph81%29.59 "HgN/A
9:30 AM39 °FPartly cloudy.10 mph81%29.56 "HgN/A
9:00 AM39 °FPassing clouds.6 mph87%29.56 "HgN/A
8:30 AM39 °FPassing clouds.6 mph87%29.56 "HgN/A
8:00 AM39 °FPassing clouds.8 mph81%29.53 "HgN/A
7:30 AM39 °FPassing clouds.10 mph87%29.53 "HgN/A
7:00 AM41 °FPassing clouds.6 mph93%29.53 "HgN/A
6:30 AM41 °FPassing clouds.8 mph93%29.50 "HgN/A
6:00 AM43 °FPassing clouds.6 mph93%29.50 "HgN/A
5:30 AM43 °FLight rain. Overcast.8 mph93%29.50 "Hg5 mi
5:00 AM45 °FMostly cloudy.8 mph93%29.47 "HgN/A
4:30 AM45 °FOvercast.8 mph93%29.47 "HgN/A
4:00 AM45 °FLight rain. Mostly cloudy.8 mph93%29.47 "Hg5 mi
Weather by CustomWeather, © 2014

See weather overviewHow to use our weather pages